WZZ25DD LIEA-EPMO

Flight info

Callsign WZZ25DD
Flight time 2h 4m
Altitude 34000
Route MINKA DCT POZZO DCT ROMPO DCT BATOX DCT MAMAR DCT BAXON/N0444F350 DCT GEMKA DCT LEDVA DCT NETIR DCT LIGDI DCT KURON T709 KOTEK DCT LOGDA
Aircraft A21N/M-SDE3FGHIRWY/LB1

Departure

Time 2026-05-07 15:50
Airport Alghero-Fertilia Airport (LIEA)

Arrival

Time 2026-05-07 17:55
Airport Warsaw Modlin Airport (EPMO)
Time Latitude Longitude Altitude Speed Heading
2026-05-07 15:10 40.63131 8.29476 84 ft 0 kts 114°
2026-05-07 15:40 40.63134 8.29468 83 ft 2 kts 114°
2026-05-07 15:41 40.63141 8.29451 83 ft 2 kts 137°
2026-05-07 15:41 40.63154 8.29440 83 ft 2 kts 163°
2026-05-07 15:41 40.63169 8.29439 83 ft 2 kts 191°
2026-05-07 15:41 40.63177 8.29441 83 ft 1 kts 205°
2026-05-07 15:42 40.63182 8.29445 83 ft 0 kts 204°
2026-05-07 15:44 40.63170 8.29438 83 ft 5 kts 202°
2026-05-07 15:45 40.63113 8.29407 82 ft 11 kts 201°
2026-05-07 15:45 40.63031 8.29355 81 ft 13 kts 205°
2026-05-07 15:45 40.62940 8.29302 81 ft 14 kts 203°
2026-05-07 15:45 40.62865 8.29223 81 ft 14 kts 246°
2026-05-07 15:46 40.62725 8.29034 78 ft 16 kts 204°
2026-05-07 15:46 40.62621 8.28970 78 ft 16 kts 204°
2026-05-07 15:46 40.62516 8.28907 78 ft 16 kts 204°
2026-05-07 15:47 40.62411 8.28843 78 ft 16 kts 204°
2026-05-07 15:47 40.62303 8.28779 78 ft 17 kts 204°
2026-05-07 15:47 40.62186 8.28709 78 ft 19 kts 204°
2026-05-07 15:47 40.62062 8.28634 78 ft 20 kts 205°
2026-05-07 15:48 40.61971 8.28579 78 ft 6 kts 210°
2026-05-07 15:48 40.61937 8.28531 77 ft 9 kts 244°
2026-05-07 15:48 40.61935 8.28432 75 ft 11 kts 300°
2026-05-07 15:48 40.62007 8.28380 75 ft 12 kts 347°
2026-05-07 15:49 40.62083 8.28399 76 ft 10 kts 24°
2026-05-07 15:49 40.62220 8.28481 78 ft 47 kts 24°
2026-05-07 15:49 40.62738 8.28792 79 ft 113 kts 24°
2026-05-07 15:49 40.63629 8.29328 88 ft 166 kts 25°
2026-05-07 15:50 40.64721 8.29992 537 ft 175 kts 25°
2026-05-07 15:50 40.65820 8.30673 1257 ft 175 kts 27°
2026-05-07 15:50 40.66912 8.31349 1756 ft 183 kts 27°
2026-05-07 15:50 40.68120 8.32078 2114 ft 199 kts 26°
2026-05-07 15:51 40.69431 8.32863 2459 ft 216 kts 26°
2026-05-07 15:51 40.70868 8.33725 2757 ft 238 kts 26°
2026-05-07 15:51 40.72440 8.34666 3191 ft 255 kts 26°
2026-05-07 15:51 40.74064 8.35638 3835 ft 262 kts 26°
2026-05-07 15:52 40.75731 8.36636 4602 ft 264 kts 26°
2026-05-07 15:52 40.77401 8.37641 5191 ft 273 kts 27°
2026-05-07 15:52 40.78973 8.39120 5538 ft 288 kts 50°
2026-05-07 15:52 40.79962 8.41438 6105 ft 295 kts 71°
2026-05-07 15:53 40.80628 8.44019 6808 ft 299 kts 71°
2026-05-07 15:53 40.81295 8.46589 7514 ft 303 kts 71°
2026-05-07 15:53 40.81987 8.49213 8212 ft 306 kts 71°
2026-05-07 15:53 40.82700 8.51889 8838 ft 311 kts 71°
2026-05-07 15:54 40.83418 8.54577 9530 ft 314 kts 71°
2026-05-07 15:54 40.84145 8.57297 10144 ft 318 kts 71°
2026-05-07 15:54 40.84788 8.60082 10734 ft 321 kts 80°
2026-05-07 15:54 40.84946 8.63017 11333 ft 324 kts 94°
2026-05-07 15:55 40.84642 8.65982 11893 ft 327 kts 101°
2026-05-07 15:55 40.84226 8.68938 12470 ft 331 kts 102°
2026-05-07 15:55 40.83794 8.71937 13034 ft 335 kts 102°
2026-05-07 15:55 40.83363 8.74975 13570 ft 339 kts 102°
2026-05-07 15:56 40.82942 8.77998 14097 ft 342 kts 101°
2026-05-07 15:56 40.82514 8.81090 14633 ft 345 kts 102°
2026-05-07 15:56 40.82247 8.84274 15123 ft 351 kts 91°
2026-05-07 15:56 40.82556 8.87474 15669 ft 355 kts 77°
2026-05-07 15:57 40.83373 8.90529 16173 ft 358 kts 69°
2026-05-07 15:57 40.84323 8.93560 16621 ft 362 kts 68°
2026-05-07 15:57 40.85303 8.96631 17105 ft 366 kts 69°
2026-05-07 15:57 40.86296 8.99766 17556 ft 370 kts 69°
2026-05-07 15:58 40.87279 9.02908 18023 ft 372 kts 69°
2026-05-07 15:58 40.88260 9.06077 18480 ft 375 kts 69°
2026-05-07 15:58 40.89238 9.09247 18865 ft 380 kts 69°
2026-05-07 15:58 40.90244 9.12512 19257 ft 384 kts 69°
2026-05-07 15:59 40.91240 9.15750 19660 ft 387 kts 68°
2026-05-07 15:59 40.92261 9.19073 20052 ft 391 kts 68°
2026-05-07 15:59 40.93288 9.22419 20430 ft 395 kts 68°
2026-05-07 15:59 40.94323 9.25793 20788 ft 399 kts 68°
2026-05-07 16:00 40.95358 9.29181 21143 ft 403 kts 68°
2026-05-07 16:00 40.96407 9.32616 21519 ft 406 kts 68°
2026-05-07 16:00 40.97476 9.36115 21905 ft 409 kts 68°
2026-05-07 16:00 40.98527 9.39570 22263 ft 412 kts 67°
2026-05-07 16:01 40.99597 9.43082 22594 ft 415 kts 67°
2026-05-07 16:01 41.00684 9.46653 22940 ft 419 kts 67°
2026-05-07 16:01 41.01777 9.50250 23276 ft 422 kts 67°
2026-05-07 16:01 41.02873 9.53853 23630 ft 425 kts 67°
2026-05-07 16:02 41.03972 9.57477 23945 ft 429 kts 67°
2026-05-07 16:02 41.05088 9.61166 24255 ft 433 kts 67°
2026-05-07 16:02 41.06214 9.64888 24594 ft 435 kts 67°
2026-05-07 16:02 41.07341 9.68623 24955 ft 437 kts 68°
2026-05-07 16:03 41.08466 9.72358 25236 ft 441 kts 68°
2026-05-07 16:03 41.09593 9.76106 25489 ft 444 kts 68°
2026-05-07 16:03 41.10740 9.79939 25827 ft 446 kts 68°
2026-05-07 16:03 41.11869 9.83754 26104 ft 449 kts 68°
2026-05-07 16:04 41.13010 9.87611 26383 ft 451 kts 68°
2026-05-07 16:04 41.14160 9.91497 26618 ft 454 kts 68°
2026-05-07 16:04 41.15309 9.95378 26902 ft 456 kts 68°
2026-05-07 16:04 41.16470 9.99308 27158 ft 459 kts 69°
2026-05-07 16:05 41.17632 10.03251 27428 ft 462 kts 68°
2026-05-07 16:05 41.18795 10.07200 27648 ft 465 kts 68°
2026-05-07 16:05 41.19979 10.11203 27922 ft 467 kts 67°
2026-05-07 16:05 41.21404 10.15087 28162 ft 469 kts 58°
2026-05-07 16:06 41.23154 10.18668 28438 ft 468 kts 51°
2026-05-07 16:06 41.25190 10.22029 28694 ft 468 kts 47°
2026-05-07 16:06 41.27317 10.25334 28962 ft 471 kts 46°
2026-05-07 16:06 41.29471 10.28651 29182 ft 474 kts 46°
2026-05-07 16:07 41.31604 10.31955 29392 ft 477 kts 46°
2026-05-07 16:07 41.33773 10.35334 29617 ft 479 kts 47°
2026-05-07 16:07 41.35934 10.38730 29895 ft 481 kts 47°
2026-05-07 16:07 41.38071 10.42094 30114 ft 483 kts 46°
2026-05-07 16:08 41.40257 10.45550 30289 ft 487 kts 47°
2026-05-07 16:08 41.42445 10.49015 30485 ft 490 kts 47°
2026-05-07 16:08 41.44622 10.52463 30685 ft 493 kts 47°
2026-05-07 16:08 41.46841 10.55986 30896 ft 495 kts 47°
2026-05-07 16:09 41.49076 10.59534 31073 ft 498 kts 47°
2026-05-07 16:09 41.51323 10.63114 31275 ft 501 kts 47°
2026-05-07 16:09 41.53551 10.66670 31486 ft 503 kts 47°
2026-05-07 16:09 41.55829 10.70301 31677 ft 505 kts 48°
2026-05-07 16:10 41.58120 10.73958 31878 ft 508 kts 47°
2026-05-07 16:10 41.60380 10.77570 32054 ft 510 kts 47°
2026-05-07 16:10 41.62628 10.81167 32229 ft 512 kts 47°
2026-05-07 16:10 41.64941 10.84874 32426 ft 513 kts 47°
2026-05-07 16:11 41.67228 10.88547 32662 ft 513 kts 47°
2026-05-07 16:11 41.69487 10.92174 32870 ft 515 kts 47°
2026-05-07 16:11 41.71777 10.95860 33075 ft 516 kts 47°
2026-05-07 16:11 41.74066 10.99542 33283 ft 517 kts 47°
2026-05-07 16:12 41.76406 11.03231 33486 ft 517 kts 45°
2026-05-07 16:12 41.78848 11.06693 33677 ft 517 kts 40°
2026-05-07 16:12 41.81485 11.09975 33845 ft 516 kts 36°
2026-05-07 16:12 41.84242 11.12983 33969 ft 515 kts 31°
2026-05-07 16:13 41.87189 11.15778 33966 ft 514 kts 27°
2026-05-07 16:13 41.93203 11.20950 33977 ft 514 kts 26°
2026-05-07 16:14 41.99209 11.26071 33979 ft 514 kts 26°
2026-05-07 16:14 42.05241 11.31276 33981 ft 514 kts 26°
2026-05-07 16:15 42.11248 11.36482 33961 ft 514 kts 26°
2026-05-07 16:15 42.17203 11.41670 33967 ft 512 kts 26°
2026-05-07 16:16 42.23199 11.46902 33961 ft 513 kts 26°
2026-05-07 16:16 42.29177 11.52132 33978 ft 513 kts 26°
2026-05-07 16:17 42.35150 11.57376 33977 ft 511 kts 26°
2026-05-07 16:17 42.41123 11.62621 33978 ft 510 kts 26°
2026-05-07 16:18 42.47048 11.67840 33972 ft 510 kts 27°
2026-05-07 16:18 42.52969 11.73068 33980 ft 509 kts 27°
2026-05-07 16:19 42.58918 11.78336 33975 ft 511 kts 27°
2026-05-07 16:19 42.64824 11.83576 33976 ft 507 kts 27°
2026-05-07 16:20 42.70721 11.88820 33986 ft 509 kts 27°
2026-05-07 16:20 42.76638 11.94092 33975 ft 506 kts 27°
2026-05-07 16:21 42.82500 11.99332 33979 ft 506 kts 28°
2026-05-07 16:21 42.88356 12.04576 33963 ft 504 kts 28°
2026-05-07 16:22 42.94195 12.09816 33980 ft 503 kts 28°
2026-05-07 16:22 43.00041 12.15075 33991 ft 503 kts 28°
2026-05-07 16:23 43.05858 12.20319 33946 ft 504 kts 28°
2026-05-07 16:23 43.11712 12.25611 33998 ft 503 kts 28°
2026-05-07 16:24 43.17516 12.30867 33944 ft 503 kts 28°
2026-05-07 16:24 43.23349 12.36162 33991 ft 503 kts 28°
2026-05-07 16:25 43.29162 12.41452 33999 ft 503 kts 28°
2026-05-07 16:25 43.35003 12.46782 33990 ft 502 kts 28°
2026-05-07 16:26 43.40804 12.52087 34011 ft 502 kts 27°
2026-05-07 16:26 43.46580 12.57377 34039 ft 502 kts 28°
2026-05-07 16:27 43.52392 12.62719 33985 ft 501 kts 28°
2026-05-07 16:27 43.58205 12.68069 33996 ft 502 kts 28°
2026-05-07 16:28 43.63978 12.73395 34022 ft 502 kts 28°
2026-05-07 16:28 43.69733 12.78724 34002 ft 500 kts 28°
2026-05-07 16:29 43.75507 12.84075 33972 ft 500 kts 28°
2026-05-07 16:29 43.81300 12.89456 34003 ft 501 kts 28°
2026-05-07 16:30 43.87084 12.94844 33973 ft 501 kts 28°
2026-05-07 16:30 43.92865 13.00242 34006 ft 502 kts 28°
2026-05-07 16:31 43.98623 13.05634 34006 ft 502 kts 28°
2026-05-07 16:31 44.04390 13.11046 33976 ft 501 kts 28°
2026-05-07 16:32 44.10148 13.16460 33984 ft 501 kts 28°
2026-05-07 16:32 44.15912 13.21895 33971 ft 501 kts 28°
2026-05-07 16:33 44.21672 13.27337 33986 ft 501 kts 28°
2026-05-07 16:33 44.24545 13.30057 34139 ft 502 kts 28°
2026-05-07 16:33 44.27419 13.32781 34425 ft 501 kts 28°
2026-05-07 16:33 44.30308 13.35521 34654 ft 499 kts 28°
2026-05-07 16:34 44.33154 13.38224 34853 ft 498 kts 29°
2026-05-07 16:34 44.36030 13.40960 34971 ft 498 kts 29°
2026-05-07 16:34 44.38861 13.43650 34968 ft 498 kts 28°
2026-05-07 16:35 44.44772 13.48521 34989 ft 492 kts 21°
2026-05-07 16:35 44.50886 13.52773 34983 ft 490 kts 20°
2026-05-07 16:36 44.56982 13.56949 34986 ft 489 kts 20°
2026-05-07 16:36 44.63052 13.61141 34998 ft 488 kts 20°
2026-05-07 16:37 44.69155 13.65380 35007 ft 489 kts 21°
2026-05-07 16:37 44.75232 13.69611 34993 ft 490 kts 21°
2026-05-07 16:38 44.81308 13.73858 35035 ft 489 kts 21°
2026-05-07 16:38 44.87421 13.78142 35028 ft 489 kts 21°
2026-05-07 16:39 44.93527 13.82425 35026 ft 489 kts 21°
2026-05-07 16:39 44.99593 13.86694 35047 ft 488 kts 21°
2026-05-07 16:40 45.05664 13.90976 34990 ft 488 kts 21°
2026-05-07 16:40 45.11719 13.95258 35017 ft 488 kts 21°
2026-05-07 16:41 45.17806 13.99570 35035 ft 489 kts 21°
2026-05-07 16:41 45.23853 14.03867 35012 ft 489 kts 21°
2026-05-07 16:42 45.29942 14.08202 34976 ft 489 kts 21°
2026-05-07 16:42 45.35995 14.12520 34996 ft 489 kts 21°
2026-05-07 16:43 45.42092 14.16880 34996 ft 489 kts 21°
2026-05-07 16:43 45.48140 14.21227 34979 ft 489 kts 22°
2026-05-07 16:44 45.54187 14.25710 34998 ft 490 kts 22°
2026-05-07 16:44 45.60240 14.30226 34978 ft 490 kts 22°
2026-05-07 16:45 45.66239 14.34702 34987 ft 490 kts 22°
2026-05-07 16:45 45.72294 14.39227 35000 ft 490 kts 22°
2026-05-07 16:46 45.78315 14.43735 34980 ft 489 kts 22°
2026-05-07 16:46 45.84341 14.48257 35046 ft 489 kts 22°
2026-05-07 16:47 45.90353 14.52782 34930 ft 490 kts 22°
2026-05-07 16:47 45.96388 14.57333 34962 ft 490 kts 22°
2026-05-07 16:48 46.02414 14.61885 34902 ft 491 kts 22°
2026-05-07 16:48 46.08451 14.66461 34991 ft 490 kts 23°
2026-05-07 16:49 46.14494 14.71053 34952 ft 491 kts 24°
2026-05-07 16:49 46.20516 14.75639 34956 ft 490 kts 24°
2026-05-07 16:50 46.26532 14.80236 34990 ft 490 kts 24°
2026-05-07 16:50 46.32518 14.84814 34987 ft 490 kts 24°
2026-05-07 16:51 46.38533 14.89433 34964 ft 490 kts 24°
2026-05-07 16:51 46.44554 14.94064 34955 ft 489 kts 24°
2026-05-07 16:52 46.50525 14.98676 34968 ft 489 kts 24°
2026-05-07 16:52 46.56532 15.03315 34985 ft 490 kts 24°
2026-05-07 16:53 46.62531 15.07971 34952 ft 490 kts 24°
2026-05-07 16:53 46.68548 15.12640 34961 ft 489 kts 25°
2026-05-07 16:54 46.74520 15.17297 34968 ft 490 kts 25°
2026-05-07 16:54 46.80506 15.21976 34943 ft 491 kts 24°
2026-05-07 16:55 46.86529 15.26685 34968 ft 491 kts 25°
2026-05-07 16:55 46.92514 15.31389 34956 ft 490 kts 25°
2026-05-07 16:56 46.98536 15.36129 34954 ft 490 kts 25°
2026-05-07 16:56 47.07521 15.43223 34916 ft 491 kts 25°
2026-05-07 16:57 47.13528 15.47983 34938 ft 492 kts 25°
2026-05-07 16:57 47.19492 15.52723 34943 ft 492 kts 25°
2026-05-07 16:58 47.25482 15.57493 34963 ft 492 kts 25°
2026-05-07 16:58 47.31487 15.62284 35020 ft 492 kts 25°
2026-05-07 16:59 47.37489 15.67087 34980 ft 492 kts 26°
2026-05-07 16:59 47.40503 15.69507 34855 ft 491 kts 26°
2026-05-07 16:59 47.43507 15.71923 35006 ft 492 kts 26°
2026-05-07 17:00 47.49505 15.76743 34948 ft 493 kts 26°
2026-05-07 17:00 47.55511 15.81591 35002 ft 493 kts 26°
2026-05-07 17:01 47.61499 15.86437 34969 ft 494 kts 26°
2026-05-07 17:01 47.67493 15.91299 34948 ft 494 kts 26°
2026-05-07 17:02 47.73505 15.96183 34930 ft 496 kts 27°
2026-05-07 17:02 47.79564 16.01123 34970 ft 497 kts 27°
2026-05-07 17:03 47.85600 16.06059 35003 ft 497 kts 27°
2026-05-07 17:03 47.91636 16.11010 34982 ft 497 kts 27°
2026-05-07 17:04 47.97678 16.15974 34972 ft 498 kts 27°
2026-05-07 17:04 48.03743 16.20974 34982 ft 498 kts 27°
2026-05-07 17:05 48.09782 16.25964 34989 ft 498 kts 27°
2026-05-07 17:05 48.15831 16.30975 34991 ft 497 kts 27°
2026-05-07 17:06 48.21865 16.35993 34996 ft 496 kts 27°
2026-05-07 17:06 48.27853 16.40979 35002 ft 496 kts 27°
2026-05-07 17:07 48.33884 16.46015 35024 ft 495 kts 27°
2026-05-07 17:07 48.39854 16.51017 35002 ft 495 kts 27°
2026-05-07 17:08 48.45854 16.56056 34989 ft 496 kts 27°
2026-05-07 17:08 48.51863 16.61112 34984 ft 495 kts 28°
2026-05-07 17:09 48.57845 16.66162 34968 ft 494 kts 28°
2026-05-07 17:09 48.63805 16.71208 34970 ft 493 kts 28°
2026-05-07 17:10 48.69607 16.76807 34957 ft 494 kts 37°
2026-05-07 17:10 48.74799 16.83499 34862 ft 493 kts 45°
2026-05-07 17:11 48.79334 16.91213 34894 ft 491 kts 53°
2026-05-07 17:11 48.83506 16.99320 34904 ft 491 kts 54°
2026-05-07 17:12 48.87678 17.07475 34956 ft 491 kts 53°
2026-05-07 17:12 48.91881 17.15662 35003 ft 491 kts 53°
2026-05-07 17:13 48.96048 17.23786 34928 ft 491 kts 53°
2026-05-07 17:13 49.00243 17.31977 34972 ft 490 kts 53°
2026-05-07 17:14 49.04414 17.40144 34962 ft 490 kts 54°
2026-05-07 17:14 49.08555 17.48278 34982 ft 490 kts 54°
2026-05-07 17:15 49.12636 17.56321 34935 ft 490 kts 54°
2026-05-07 17:15 49.16781 17.64514 34980 ft 490 kts 54°
2026-05-07 17:16 49.20927 17.72738 34962 ft 490 kts 55°
2026-05-07 17:16 49.25053 17.80944 34999 ft 490 kts 55°
2026-05-07 17:17 49.29174 17.89161 34947 ft 488 kts 55°
2026-05-07 17:17 49.33305 17.97432 34982 ft 489 kts 55°
2026-05-07 17:18 49.37406 18.05660 34987 ft 489 kts 55°
2026-05-07 17:18 49.41538 18.13985 34955 ft 490 kts 55°
2026-05-07 17:19 49.45641 18.22268 34999 ft 490 kts 55°
2026-05-07 17:19 49.49752 18.30597 34992 ft 490 kts 55°
2026-05-07 17:20 49.53851 18.38922 34980 ft 491 kts 56°
2026-05-07 17:20 49.57944 18.47273 34995 ft 492 kts 56°
2026-05-07 17:21 49.62048 18.55658 34970 ft 492 kts 56°
2026-05-07 17:21 49.66129 18.64033 34993 ft 492 kts 55°
2026-05-07 17:22 49.70558 18.72121 34943 ft 495 kts 49°
2026-05-07 17:22 49.73027 18.75888 35054 ft 497 kts 45°
2026-05-07 17:22 49.75567 18.79434 34979 ft 499 kts 44°
2026-05-07 17:23 49.80767 18.86516 34972 ft 499 kts 44°
2026-05-07 17:23 49.85930 18.93593 34991 ft 498 kts 43°
2026-05-07 17:24 49.91089 19.00725 34969 ft 499 kts 44°
2026-05-07 17:24 49.96281 19.07920 34940 ft 499 kts 45°
2026-05-07 17:25 50.01440 19.15070 34932 ft 501 kts 42°
2026-05-07 17:25 50.07265 19.20956 34928 ft 503 kts 31°
2026-05-07 17:26 50.13303 19.26367 34943 ft 503 kts 31°
2026-05-07 17:26 50.19346 19.31860 34939 ft 504 kts 31°
2026-05-07 17:27 50.25384 19.37440 34937 ft 504 kts 31°
2026-05-07 17:27 50.31373 19.43017 34951 ft 503 kts 31°
2026-05-07 17:28 50.37363 19.48613 34939 ft 503 kts 31°
2026-05-07 17:28 50.43358 19.54234 34959 ft 504 kts 31°
2026-05-07 17:29 50.49337 19.59859 34954 ft 504 kts 31°
2026-05-07 17:29 50.55363 19.65535 34961 ft 504 kts 32°
2026-05-07 17:30 50.61338 19.71184 34959 ft 505 kts 31°
2026-05-07 17:30 50.67364 19.76894 34939 ft 504 kts 31°
2026-05-07 17:31 50.73350 19.82593 34949 ft 504 kts 31°
2026-05-07 17:31 50.79332 19.88293 34901 ft 507 kts 31°
2026-05-07 17:32 50.82324 19.91156 34669 ft 505 kts 31°
2026-05-07 17:32 50.85297 19.94003 34392 ft 502 kts 32°
2026-05-07 17:32 50.88288 19.96873 34132 ft 499 kts 31°
2026-05-07 17:32 50.90242 19.98747 33957 ft 497 kts 32°
2026-05-07 17:33 50.94168 20.02526 33622 ft 495 kts 32°
2026-05-07 17:33 50.97098 20.05349 33316 ft 494 kts 32°
2026-05-07 17:33 50.99989 20.08139 32889 ft 493 kts 32°
2026-05-07 17:33 51.02936 20.10985 32428 ft 493 kts 32°
2026-05-07 17:34 51.05857 20.13813 31841 ft 493 kts 32°
2026-05-07 17:34 51.08763 20.16628 31390 ft 487 kts 32°
2026-05-07 17:34 51.11599 20.19380 31045 ft 483 kts 32°
2026-05-07 17:34 51.14482 20.22183 30610 ft 480 kts 32°
2026-05-07 17:35 51.17279 20.24905 30159 ft 476 kts 32°
2026-05-07 17:35 51.20097 20.27655 29744 ft 473 kts 32°
2026-05-07 17:35 51.22901 20.30393 29329 ft 470 kts 32°
2026-05-07 17:35 51.25658 20.33090 28874 ft 466 kts 32°
2026-05-07 17:36 51.28345 20.35821 28529 ft 462 kts 36°
2026-05-07 17:36 51.30950 20.38753 28085 ft 457 kts 37°
2026-05-07 17:36 51.33521 20.41722 27503 ft 455 kts 37°
2026-05-07 17:36 51.36068 20.44686 26966 ft 452 kts 37°
2026-05-07 17:37 51.38586 20.47622 26447 ft 448 kts 37°
2026-05-07 17:37 51.41091 20.50549 25964 ft 445 kts 37°
2026-05-07 17:37 51.43574 20.53436 25455 ft 442 kts 37°
2026-05-07 17:37 51.46020 20.56277 24959 ft 438 kts 37°
2026-05-07 17:38 51.48485 20.59138 24455 ft 436 kts 37°
2026-05-07 17:38 51.50930 20.61971 23961 ft 432 kts 37°
2026-05-07 17:38 51.53359 20.64781 23487 ft 429 kts 37°
2026-05-07 17:38 51.55755 20.67550 23028 ft 426 kts 38°
2026-05-07 17:39 51.58129 20.70296 22610 ft 421 kts 38°
2026-05-07 17:39 51.60502 20.73052 22179 ft 417 kts 38°
2026-05-07 17:39 51.62843 20.75774 21753 ft 413 kts 38°
2026-05-07 17:39 51.65131 20.78449 21302 ft 410 kts 38°
2026-05-07 17:40 51.67429 20.81150 20881 ft 406 kts 38°
2026-05-07 17:40 51.69682 20.83807 20462 ft 402 kts 38°
2026-05-07 17:40 51.71915 20.86452 20001 ft 400 kts 38°
2026-05-07 17:40 51.74164 20.88996 19629 ft 396 kts 33°
2026-05-07 17:41 51.76549 20.91173 19366 ft 396 kts 28°
2026-05-07 17:41 51.78978 20.93236 19115 ft 393 kts 27°
2026-05-07 17:41 51.81388 20.95282 18878 ft 391 kts 28°
2026-05-07 17:41 51.83779 20.97353 18623 ft 389 kts 28°
2026-05-07 17:42 51.86126 20.99405 18376 ft 386 kts 28°
2026-05-07 17:42 51.88470 21.01474 18129 ft 384 kts 28°
2026-05-07 17:42 51.90822 21.03555 17826 ft 383 kts 29°
2026-05-07 17:42 51.93153 21.05628 17451 ft 381 kts 29°
2026-05-07 17:43 51.95443 21.07674 17068 ft 378 kts 28°
2026-05-07 17:43 51.97719 21.09705 16667 ft 375 kts 28°
2026-05-07 17:43 51.99986 21.11731 16256 ft 373 kts 28°
2026-05-07 17:43 52.02260 21.13768 15848 ft 371 kts 28°
2026-05-07 17:44 52.04493 21.15771 15446 ft 370 kts 28°
2026-05-07 17:44 52.06758 21.17803 15019 ft 367 kts 27°
2026-05-07 17:44 52.08954 21.19775 14614 ft 365 kts 27°
2026-05-07 17:44 52.11198 21.21792 14194 ft 363 kts 27°
2026-05-07 17:45 52.13387 21.23762 13780 ft 361 kts 27°
2026-05-07 17:45 52.15557 21.25718 13388 ft 358 kts 27°
2026-05-07 17:45 52.17710 21.27661 12960 ft 357 kts 27°
2026-05-07 17:45 52.19866 21.29605 12542 ft 354 kts 27°
2026-05-07 17:46 52.22011 21.31544 12139 ft 351 kts 27°
2026-05-07 17:46 52.24133 21.33464 11756 ft 349 kts 27°
2026-05-07 17:46 52.26234 21.35368 11325 ft 347 kts 27°
2026-05-07 17:46 52.28448 21.36894 10741 ft 345 kts
2026-05-07 17:47 52.30784 21.36717 10329 ft 333 kts 340°
2026-05-07 17:47 52.32728 21.34865 9990 ft 320 kts 315°
2026-05-07 17:47 52.34067 21.32079 9640 ft 310 kts 299°
2026-05-07 17:47 52.35155 21.29117 9320 ft 306 kts 299°
2026-05-07 17:48 52.36252 21.26185 8987 ft 301 kts 300°
2026-05-07 17:48 52.37359 21.23315 8647 ft 296 kts 301°
2026-05-07 17:48 52.38467 21.20512 8290 ft 292 kts 301°
2026-05-07 17:48 52.39575 21.17748 7951 ft 287 kts 302°
2026-05-07 17:49 52.40659 21.15064 7638 ft 283 kts 302°
2026-05-07 17:49 52.41731 21.12419 7342 ft 278 kts 302°
2026-05-07 17:49 52.42796 21.09792 7030 ft 274 kts 302°
2026-05-07 17:49 52.43837 21.07220 6720 ft 269 kts 302°
2026-05-07 17:50 52.44863 21.04692 6361 ft 263 kts 303°
2026-05-07 17:50 52.45857 21.02241 5922 ft 257 kts 303°
2026-05-07 17:50 52.46834 20.99828 5371 ft 255 kts 303°
2026-05-07 17:50 52.47689 20.97314 4807 ft 254 kts 287°
2026-05-07 17:51 52.47863 20.94479 4273 ft 254 kts 268°
2026-05-07 17:51 52.47675 20.91615 3768 ft 252 kts 263°
2026-05-07 17:51 52.47400 20.88802 3378 ft 248 kts 262°
2026-05-07 17:51 52.47115 20.86039 2995 ft 247 kts 262°
2026-05-07 17:52 52.46844 20.83301 2603 ft 236 kts 263°
2026-05-07 17:52 52.46594 20.80711 2236 ft 222 kts 264°
2026-05-07 17:52 52.46365 20.78322 1990 ft 203 kts 265°
2026-05-07 17:52 52.46154 20.76116 1646 ft 190 kts 265°
2026-05-07 17:53 52.45957 20.74044 1341 ft 177 kts 265°
2026-05-07 17:53 52.45775 20.72133 1080 ft 163 kts 265°
2026-05-07 17:53 52.45607 20.70363 821 ft 149 kts 265°
2026-05-07 17:53 52.45454 20.68718 554 ft 142 kts 264°
2026-05-07 17:54 52.45303 20.67120 381 ft 142 kts 264°
2026-05-07 17:54 52.45170 20.65674 334 ft 92 kts 260°
2026-05-07 17:54 52.45099 20.64933 335 ft 57 kts 261°
2026-05-07 17:54 52.45040 20.64314 333 ft 52 kts 262°
2026-05-07 17:55 52.44994 20.63821 334 ft 34 kts 261°
2026-05-07 17:55 52.44963 20.63500 334 ft 20 kts 259°
2026-05-07 17:55 52.44894 20.63395 338 ft 13 kts 182°
2026-05-07 17:55 52.44804 20.63413 339 ft 12 kts 172°
2026-05-07 17:56 52.44717 20.63436 340 ft 12 kts 171°
2026-05-07 17:56 52.44640 20.63473 341 ft 11 kts 131°
2026-05-07 17:56 52.44635 20.63604 341 ft 12 kts 81°
2026-05-07 17:56 52.44652 20.63778 338 ft 18 kts 80°
2026-05-07 17:57 52.44672 20.64002 337 ft 20 kts 81°
2026-05-07 17:57 52.44687 20.64159 336 ft 20 kts 81°
2026-05-07 17:57 52.44716 20.64467 336 ft 20 kts 81°
2026-05-07 17:57 52.44737 20.64686 339 ft 18 kts 81°
2026-05-07 17:58 52.44756 20.64890 338 ft 17 kts 81°
2026-05-07 17:58 52.44775 20.65081 338 ft 16 kts 82°
2026-05-07 17:58 52.44793 20.65265 338 ft 13 kts 81°
2026-05-07 17:58 52.44791 20.65349 338 ft 4 kts 130°
2026-05-07 17:59 52.44780 20.65354 338 ft 1 kts 183°
2026-05-07 17:59 52.44771 20.65350 338 ft 1 kts 200°
2026-05-07 17:59 52.44761 20.65343 338 ft 1 kts 202°
2026-05-07 17:59 52.44755 20.65338 338 ft 0 kts 205°